Torna al catalogo

STARLINK-3607

AttivoComunicazioniVLEO
NORAD 51809·PAYLOAD·🇺🇸 United States

Lanciato Feb 25, 2022 da Vandenberg Space Force Base

Loading…

Prossimi Passaggi (prossime 24 ore)

TLE

AggiornatoSource: CelesTrak SupGP

Epoca: Sep 15, 2026, 01:31 UTC

1 51809C 22017AT  26258.06368056 -.00024146  00000+0 -73282-3 0  2583
2 51809  53.1581 197.4273 0001389  78.8111  35.4607 15.33554756    18

Traccia STARLINK-3607 in tempo reale con AllMySat

Download on the App Store